This demonstration page uses our WeatherBlox Daily Observations layout. Learn more.

Left ArrowRight Arrow

Hourly Observations for August 25, 2021

Temp ( °F °C ) Dew Point ( °F °C ) Humidity (%) Winds ( mph kmh ) Pressure ( in mb ) Visibility ( mi km ) Precip ( " mm )
12:51 am 00:51 Clear 76 24.4 60 15.6 58 58 E 3 6 29.83 1010 10 16 0.00 0.00
1:51 am 01:51 Clear 75 23.9 61 16.1 62 62 Calm 29.83 1010 10 16 0.00 0.00
2:51 am 02:51 Clear 73 22.8 60 15.6 64 64 Calm 29.84 1010 10 16 0.00 0.00
3:51 am 03:51 Clear 72 22.2 60 15.6 66 66 Calm 29.85 1011 10 16 0.00 0.00
4:51 am 04:51 Clear 71 21.7 60 15.6 68 68 NNW 3 6 29.85 1011 10 16 0.00 0.00
5:51 am 05:51 Sunny 69 20.6 59 15 70 70 Calm 29.87 1012 10 16 0.00 0.00
6:51 am 06:51 Sunny 76 24.4 61 16.1 60 60 Calm 29.88 1012 10 16 0.00 0.00
7:51 am 07:51 Sunny 81 27.2 60 15.6 49 49 Calm 29.90 1012 10 16 0.00 0.00
8:51 am 08:51 Sunny 85 29.4 60 15.6 43 43 Calm 29.90 1012 10 16 0.00 0.00
9:51 am 09:51 Sunny 88 31.1 60 15.6 39 39 Calm 29.89 1012 10 16 0.00 0.00
10:51 am 10:51 Sunny 92 33.3 60 15.6 34 34 VRB 5 7 29.87 1012 10 16 0.00 0.00
11:51 am 11:51 Sunny 97 36.1 58 14.4 27 27 Calm 29.83 1010 10 16 0.00 0.00
12:51 pm 12:51 Sunny 98 36.7 57 13.9 25 25 VRB 3 6 29.81 1010 10 16 0.00 0.00
1:51 pm 13:51 Sunny 101 38.3 56 13.3 22 22 W 9 15 29.78 1009 10 16 0.00 0.00
2:51 pm 14:51 Sunny 100 37.8 54 12.2 21 21 VRB 3 6 29.76 1008 10 16 0.00 0.00
3:51 pm 15:51 Sunny 102 38.9 50 10 17 17 SW 8 13 29.73 1007 10 16 0.00 0.00
4:51 pm 16:51 Sunny 100 37.8 54 12.2 21 21 S 7 11 29.74 1007 10 16 0.00 0.00
5:51 pm 17:51 Sunny 100 37.8 53 11.7 21 21 SW 5 7 29.74 1007 10 16 0.00 0.00
6:51 pm 18:51 Sunny 97 36.1 54 12.2 24 24 WSW 5 7 29.73 1007 10 16 0.00 0.00
7:51 pm 19:51 Clear 91 32.8 56 13.3 31 31 Calm 29.75 1008 10 16 0.00 0.00
8:51 pm 20:51 Clear 86 30 57 13.9 37 37 E 5 7 29.77 1008 10 16 0.00 0.00
9:51 pm 21:51 Clear 88 31.1 56 13.3 34 34 ENE 8 13 29.78 1009 10 16 0.00 0.00
10:51 pm 22:51 Clear 88 31.1 55 12.8 33 33 Calm 29.78 1009 10 16 0.00 0.00
11:51 pm 23:51 Clear 83 28.3 60 15.6 46 46 S 3 6 29.79 1009 10 16 0.00 0.00

Powered by AerisWeather